カタログに戻る

CZ-4C DEB

運用中SSO
NORAD 43263·DEBRIS·🇨🇳 China

打ち上げ Mar 31, 2018 から Taiyuan Satellite Launch Center

Loading…

次のパス (今後24時間)

TLE

最新Source: Space-Track

元期: Sep 13, 2026, 22:41 UTC

1 43263U 18031E   26256.94514389  .00001863  00000-0  24384-3 0  9997
2 43263  97.6970 257.2215 0039364  51.4781 308.9951 14.81019277454506

AllMySatでCZ-4C DEBをリアルタイム追跡

Download on the App Store